Flag for Germany Weather past 2 weeks in Rheinberg, North Rhine-Westphalia, Germany

Now
55 °F

Overcast.


Feels Like: 52 °F
Forecast: 43 / 53 °F
Wind: 10 mph from Southwest

Location: Duesseldorf

Current Time: Dec 18, 2014 at 7:55:17 PM

Latest Report: Dec 18, 2014 at 7:00 PM


Visibility: 28 mi

Pressure: 29.88 "Hg

Humidity: 81%

Dew point: 49 °F

Location of RheinbergLocation

Historic Weather in Rheinberg — Graph

°F

Rheinberg temperature yesterday

Maximum temperature yesterday: 49 °F (at 9:00 PM)
Minimum temperature yesterday: 36 °F (at 1:00 AM)
Average temperature yesterday: 43 °F

Past Weeks' High & Low Weather Summary

 TemperatureHumidityPressure
High55 °F (Dec 18, 6:00 PM)100% (Dec 14, 6:00 AM)30.39 "Hg (Dec 14, 6:00 AM)
Low30 °F (Dec 3, 7:00 PM)65% (Dec 7, 3:00 PM)29.41 "Hg (Dec 12, 1:00 PM)
Average41 °F87%29.98 "Hg
* Reported Dec 3 6:00 PM — Dec 18 6:00 PM, Rheinberg, Weather by CustomWeather, © 2014

Note: Actual official high and low records may vary slightly from our data, if they occured in-between our weather recording intervals... More about our weather records

Advertising

Rheinberg weather history for previous 24 hours

 ConditionsComfort  
Time TempWeatherWind HumidityBarometerVisibility
6:00 PM
Dec 18
55 °FLow clouds.12 mph89%29.87 "Hg9 mi
5:00 PM54 °FLow clouds.9 mph92%29.86 "Hg6 mi
3:00 PM53 °FDrizzle. Low clouds.7 mph94%29.85 "Hg4 mi
2:00 PM54 °FDrizzle. Low clouds.7 mph94%29.85 "Hg3 mi
1:00 PM54 °FLow clouds.7 mph90%29.85 "Hg16 mi
12:00 PM53 °FLow clouds.6 mph94%29.85 "Hg7 mi
11:00 AM52 °FDrizzle. Low clouds.6 mph97%29.85 "Hg2 mi
10:00 AM52 °FDrizzle. Low clouds.6 mph96%29.85 "Hg3 mi
9:00 AM51 °FLow clouds.6 mph96%29.84 "Hg4 mi
8:00 AM51 °FDrizzle. Low clouds.7 mph97%29.83 "Hg4 mi
7:00 AM51 °FDrizzle. Low clouds.6 mph97%29.82 "Hg2 mi
6:00 AM51 °FRain. Low clouds.5 mph94%29.82 "Hg5 mi
5:00 AM51 °FOvercast.5 mph92%29.82 "Hg8 mi
3:00 AM50 °FLow clouds.5 mph95%29.84 "Hg4 mi
2:00 AM50 °FLow clouds.5 mph96%29.84 "Hg2 mi
1:00 AM50 °FLow clouds.5 mph97%29.85 "Hg2 mi
12:00 AM50 °FRain. Low clouds.5 mph98%29.83 "Hg2 mi
11:00 PM
Dec 17
49 °FLow clouds.5 mph97%29.82 "Hg2 mi
10:00 PMN/APassing clouds.3 mphN/AN/A14 mi
9:00 PM49 °FRain. Low clouds.5 mph97%29.78 "Hg2 mi
8:00 PM49 °FLow clouds.5 mph97%29.75 "Hg3 mi
7:00 PM49 °FRain. Low clouds.5 mph97%29.73 "Hg2 mi
Weather by CustomWeather, © 2014

See weather overviewHow to use our weather pages